Weather History for CWWA - February, 2013

Change the Weather History Date:

Saturday, February 16, 2013

  Actual Average Record
Temperature  
Mean Temperature 44 °F -  
Max Temperature 50 °F - - ()
Min Temperature 37 °F - - ()
Degree Days  
Heating Degree Days 22    
Moisture  
Dew Point 39 °F    
Average Humidity 86    
Maximum Humidity 96    
Minimum Humidity 62    
Precipitation  
Precipitation 0.12 in - - ()
Sea Level Pressure  
Sea Level Pressure 30.09 in    
Wind  
Wind Speed 1 mph ()    
Max Wind Speed 4 mph    
Max Gust Speed -    
T = Trace of Precipitation, MM = Missing Value Source: Averaged Metar Reports

Daily Weather History Graph

Daily Weather History Graph

Search for Another Location

Airport or City:

Trip Planner

Search our weather history database for the weather conditions in past years. The results will help you decide how hot, cold, wet, or windy it might be!

Date:

Astronomy

Feb. 16, 2013 Rise Set
Actual Time 7:19 AM PST 5:34 PM PST
Civil Twilight 6:46 AM PST 6:07 PM PST
Nautical Twilight 6:09 AM PST 6:45 PM PST
Astronomical Twilight 5:32 AM PST 7:21 PM PST
Moon 9:55 AM PST (2/16) 12:18 AM PST (2/16)
Length of Visible Light 11h 21m
Length of Day
10h 15m
Waxing Crescent, 40% of the Moon is Illuminated
Feb 16
Waxing Crescent
Feb 17
First Quarter
Feb 25
Full
Mar 4
Last Quarter
Mar 11
New

Hourly Weather History & Observations

Time (PST) Temp. Windchill Dew Point Humidity Pressure Visibility Wind Dir Wind Speed Gust Speed Precip Events Conditions
12:00 AM 42.1 °F - 40.1 °F 93% 30.16 in - Calm Calm - N/A   Unknown
1:00 AM 42.4 °F - 41.0 °F 95% 30.14 in - Calm Calm - 0.03 in   Unknown
2:00 AM 42.3 °F - 41.0 °F 95% 30.14 in - WNW 2.3 mph - 0.02 in   Unknown
3:00 AM 43.2 °F - 42.1 °F 96% 30.12 in - SW 1.2 mph - 0.08 in   Unknown
4:00 AM 43 °F - 42 °F 92% 30.11 in - ESE 1.2 mph - -  
4:00 AM 42.6 °F - 41.5 °F 96% 30.11 in - ESE 1.2 mph - N/A   Unknown
5:00 AM 42.3 °F - 41.2 °F 96% 30.10 in - East 2.3 mph - N/A   Unknown
6:00 AM 41.7 °F - 40.6 °F 96% 30.10 in - ESE 2.3 mph - N/A   Unknown
7:00 AM 41.4 °F - 40.3 °F 96% 30.09 in - East 1.2 mph - N/A   Unknown
8:00 AM 41.4 °F - 40.3 °F 96% 30.10 in - East 2.3 mph - N/A   Unknown
9:00 AM 41.9 °F - 40.5 °F 95% 30.10 in - East 1.2 mph - N/A   Unknown
10:00 AM 43 °F - 42 °F 92% 30.09 in - East 3.5 mph - -  
10:00 AM 43.3 °F 41.7 °F 41.5 °F 93% 30.09 in - East 3.5 mph - N/A   Unknown
11:00 AM 47.1 °F - 41.5 °F 81% 30.09 in - South 1.2 mph - N/A   Unknown
12:00 PM 47.1 °F - 41.5 °F 81% 30.08 in - SSW 2.3 mph - N/A   Unknown
1:00 PM 46.9 °F - 39.6 °F 76% 30.07 in - South 2.3 mph - N/A   Unknown
2:00 PM 49.8 °F - 37.2 °F 62% 30.05 in - SW 1.2 mph - N/A   Unknown
3:00 PM 47.1 °F - 37.0 °F 68% 30.05 in - West 1.2 mph - N/A   Unknown
4:00 PM 46 °F - 38 °F 65% 30.06 in - West 2.3 mph - -  
5:00 PM 45.3 °F - 36.0 °F 70% 30.05 in - WSW 2.3 mph - N/A   Unknown
6:00 PM 42.8 °F 41.1 °F 35.6 °F 76% 30.06 in - NNW 3.5 mph - N/A   Unknown
7:00 PM 41.4 °F - 35.6 °F 80% 30.07 in - NNW 2.3 mph - N/A   Unknown
8:00 PM 39.2 °F - 35.1 °F 85% 30.08 in - North 2.3 mph - N/A   Unknown
9:00 PM 37.9 °F - 34.3 °F 87% 30.09 in - North 2.3 mph - N/A   Unknown
10:00 PM 37 °F - 34 °F 85% 30.10 in - NNE 2.3 mph - -  
10:00 PM 37.0 °F - 34.2 °F 89% 30.10 in - NNE 2.3 mph - N/A   Unknown
11:00 PM 37.0 °F - 33.8 °F 88% 30.12 in - North 2.3 mph - N/A   Unknown